When you browse on this site, cookies collect data to enhance your experience and personalize the content and advertising you see.
Visit our Privacy Policy to learn more. By continuing to use the site, you agree to this use of cookies and data.

Stündliche Wetter Juankoski

Heute, 26 September, Samstag

Zeit Temperatur Niederschläge Wind Luftdruck Luftfeuchtigkeit
00:00 +14°C° 0 mm 2 m/S 750 mmHg 92%
01:00 +13°C° 0 mm 1 m/S 750 mmHg 91%
02:00 +13°C° 0 mm 1 m/S 750 mmHg 90%
03:00 +13°C° 0 mm 2 m/S 750 mmHg 91%
04:00 +12°C° 0 mm 2 m/S 750 mmHg 92%
05:00 +10°C° 0 mm 2 m/S 750 mmHg 94%
06:00 +12°C° 0 mm 2 m/S 750 mmHg 92%
07:00 +11°C° 0 mm 3 m/S 750 mmHg 90%
08:00 +12°C° 0 mm 3 m/S 750 mmHg 88%
09:00 +13°C° 0 mm 3 m/S 751 mmHg 84%
10:00 +14°C° 0 mm 3 m/S 751 mmHg 81%
11:00 +17°C° 0 mm 3 m/S 751 mmHg 77%
12:00 +17°C° 0 mm 3 m/S 751 mmHg 75%
13:00 +18°C° 0 mm 3 m/S 751 mmHg 74%
14:00 +19°C° 0 mm 3 m/S 751 mmHg 72%
15:00 +18°C° 0 mm 3 m/S 751 mmHg 76%
16:00 +17°C° 0 mm 2 m/S 751 mmHg 81%
17:00 +16°C° 0 mm 2 m/S 752 mmHg 85%
18:00 +15°C° 0 mm 2 m/S 752 mmHg 89%
19:00 +15°C° 0 mm 2 m/S 752 mmHg 92%
20:00 +14°C° 0 mm 2 m/S 753 mmHg 95%
21:00 +14°C° 0 mm 2 m/S 753 mmHg 95%
22:00 +13°C° 0 mm 1 m/S 753 mmHg 95%
23:00 +13°C° 0 mm 1 m/S 754 mmHg 95%

Morgen, 27 September, Sonntag

Zeit Temperatur Niederschläge Wind Luftdruck Luftfeuchtigkeit
00:00 +13°C° 0 mm 1 m/S 754 mmHg 95%
01:00 +13°C° 0 mm 1 m/S 754 mmHg 95%
02:00 +13°C° 0 mm 1 m/S 755 mmHg 95%
03:00 +12°C° 0 mm 1 m/S 755 mmHg 94%
04:00 +12°C° 0 mm 1 m/S 755 mmHg 94%
05:00 +12°C° 0 mm 1 m/S 755 mmHg 94%
06:00 +12°C° 0 mm 1 m/S 755 mmHg 92%
07:00 +13°C° 0 mm 2 m/S 756 mmHg 90%
08:00 +13°C° 0 mm 2 m/S 756 mmHg 88%
09:00 +15°C° 0 mm 2 m/S 756 mmHg 84%
10:00 +16°C° 0 mm 2 m/S 756 mmHg 80%
11:00 +17°C° 0 mm 2 m/S 757 mmHg 76%
12:00 +17°C° 0 mm 2 m/S 757 mmHg 75%
13:00 +18°C° 0 mm 2 m/S 757 mmHg 73%
14:00 +19°C° 0 mm 2 m/S 757 mmHg 72%
15:00 +18°C° 0 mm 2 m/S 757 mmHg 76%
16:00 +17°C° 0 mm 2 m/S 756 mmHg 80%
17:00 +16°C° 0 mm 2 m/S 756 mmHg 84%
18:00 +15°C° 0 mm 2 m/S 757 mmHg 87%
19:00 +14°C° 0 mm 2 m/S 757 mmHg 90%
20:00 +13°C° 0 mm 2 m/S 757 mmHg 93%
21:00 +13°C° 0 mm 2 m/S 757 mmHg 93%
22:00 +13°C° 0 mm 2 m/S 757 mmHg 94%
23:00 +12°C° 0 mm 2 m/S 757 mmHg 94%

übermorgen, 28 September, Montag

Zeit Temperatur Niederschläge Wind Luftdruck Luftfeuchtigkeit
00:00 +12°C° 0 mm 2 m/S 757 mmHg 95%
01:00 +12°C° 0 mm 2 m/S 757 mmHg 95%
02:00 +12°C° 0 mm 2 m/S 757 mmHg 96%
03:00 +12°C° 0 mm 2 m/S 757 mmHg 96%
04:00 +10°C° 0 mm 2 m/S 757 mmHg 97%
05:00 +10°C° 0 mm 2 m/S 757 mmHg 97%
06:00 +12°C° 0 mm 2 m/S 757 mmHg 95%
07:00 +12°C° 0 mm 2 m/S 756 mmHg 93%
08:00 +13°C° 0 mm 2 m/S 756 mmHg 91%
09:00 +14°C° 0 mm 2 m/S 756 mmHg 87%
10:00 +13°C° 0 mm 3 m/S 756 mmHg 82%
11:00 +14°C° 0 mm 3 m/S 756 mmHg 77%
12:00 +16°C° 0 mm 3 m/S 756 mmHg 71%
13:00 +17°C° 0 mm 3 m/S 756 mmHg 65%
14:00 +18°C° 0 mm 3 m/S 756 mmHg 59%
15:00 +16°C° 0 mm 2 m/S 756 mmHg 64%
16:00 +15°C° 0 mm 2 m/S 755 mmHg 69%
17:00 +14°C° 0 mm 2 m/S 755 mmHg 74%
18:00 +13°C° 0 mm 2 m/S 755 mmHg 78%
19:00 +12°C° 0 mm 2 m/S 756 mmHg 82%
20:00 +10°C° 0 mm 2 m/S 756 mmHg 86%
21:00 +10°C° 0 mm 2 m/S 756 mmHg 88%
22:00 +9°C° 0 mm 2 m/S 756 mmHg 89%
23:00 +10°C° 0 mm 1 m/S 756 mmHg 90%

29 September, Dienstag

Zeit Temperatur Niederschläge Wind Luftdruck Luftfeuchtigkeit
00:00 +10°C° 0 mm 1 m/S 756 mmHg 91%
01:00 +10°C° 0 mm 1 m/S 756 mmHg 93%
02:00 +9°C° 0 mm 1 m/S 756 mmHg 94%
03:00 +9°C° 0 mm 1 m/S 756 mmHg 95%
04:00 +9°C° 0 mm 1 m/S 756 mmHg 95%
05:00 +8°C° 0 mm 2 m/S 755 mmHg 95%
06:00 +9°C° 0 mm 2 m/S 756 mmHg 94%
07:00 +10°C° 0 mm 1 m/S 756 mmHg 92%
08:00 +11°C° 0 mm 1 m/S 756 mmHg 91%
09:00 +12°C° 0 mm 1 m/S 756 mmHg 86%
10:00 +13°C° 0 mm 2 m/S 756 mmHg 81%
11:00 +15°C° 0 mm 2 m/S 756 mmHg 76%
12:00 +15°C° 0 mm 2 m/S 756 mmHg 77%
13:00 +15°C° 0 mm 2 m/S 756 mmHg 77%
14:00 +15°C° 0 mm 2 m/S 756 mmHg 78%
15:00 +14°C° 0 mm 2 m/S 756 mmHg 82%
16:00 +13°C° 0 mm 2 m/S 756 mmHg 87%
17:00 +13°C° 0 mm 1 m/S 756 mmHg 92%
18:00 +12°C° 0 mm 1 m/S 756 mmHg 93%
19:00 +12°C° 0 mm 1 m/S 757 mmHg 95%
20:00 +12°C° 0 mm 1 m/S 757 mmHg 96%
21:00 +11°C° 0 mm 1 m/S 757 mmHg 96%
22:00 +11°C° 0 mm 1 m/S 757 mmHg 96%
23:00 +11°C° 0 mm 1 m/S 757 mmHg 96%

30 September, Mittwoch

Zeit Temperatur Niederschläge Wind Luftdruck Luftfeuchtigkeit
00:00 +10°C° 0 mm 1 m/S 757 mmHg 95%
01:00 +10°C° 0 mm 1 m/S 757 mmHg 95%
02:00 +9°C° 0 mm 1 m/S 757 mmHg 95%
03:00 +9°C° 0 mm 1 m/S 757 mmHg 95%
04:00 +9°C° 0 mm 1 m/S 757 mmHg 95%
05:00 +9°C° 0 mm 1 m/S 757 mmHg 96%
06:00 +9°C° 0 mm 1 m/S 757 mmHg 94%
07:00 +10°C° 0 mm 1 m/S 757 mmHg 93%
08:00 +10°C° 0 mm 1 m/S 757 mmHg 92%
09:00 +12°C° 0 mm 1 m/S 757 mmHg 87%
10:00 +13°C° 0 mm 1 m/S 757 mmHg 83%
11:00 +14°C° 0 mm 1 m/S 757 mmHg 78%
12:00 +15°C° 0 mm 2 m/S 757 mmHg 75%
13:00 +15°C° 0 mm 2 m/S 757 mmHg 71%
14:00 +16°C° 0 mm 2 m/S 757 mmHg 68%
15:00 +15°C° 0 mm 2 m/S 757 mmHg 73%
16:00 +14°C° 0 mm 2 m/S 756 mmHg 78%
17:00 +13°C° 0 mm 2 m/S 756 mmHg 84%
18:00 +11°C° 0 mm 3 m/S 756 mmHg 87%
19:00 +11°C° 0 mm 3 m/S 757 mmHg 90%
20:00 +10°C° 0 mm 3 m/S 757 mmHg 93%
21:00 +10°C° 0 mm 3 m/S 757 mmHg 94%
22:00 +10°C° 0 mm 3 m/S 757 mmHg 95%
23:00 +10°C° 0 mm 3 m/S 757 mmHg 97%

1 Oktober, Donnerstag

Zeit Temperatur Niederschläge Wind Luftdruck Luftfeuchtigkeit
00:00 +9°C° 0 mm 3 m/S 756 mmHg 96%
01:00 +9°C° 0 mm 3 m/S 756 mmHg 96%
02:00 +9°C° 0 mm 3 m/S 756 mmHg 95%
03:00 +9°C° 0 mm 3 m/S 756 mmHg 92%
04:00 +10°C° 0 mm 3 m/S 756 mmHg 89%
05:00 +10°C° 0 mm 3 m/S 756 mmHg 85%
06:00 +10°C° 0 mm 3 m/S 756 mmHg 84%
07:00 +10°C° 0 mm 3 m/S 756 mmHg 83%
08:00 +10°C° 0 mm 3 m/S 756 mmHg 82%
09:00 +11°C° 0 mm 3 m/S 756 mmHg 78%
10:00 +12°C° 0 mm 4 m/S 756 mmHg 75%
11:00 +12°C° 0 mm 4 m/S 756 mmHg 72%
12:00 +13°C° 0 mm 4 m/S 756 mmHg 68%
13:00 +14°C° 0 mm 4 m/S 756 mmHg 65%
14:00 +14°C° 0 mm 4 m/S 756 mmHg 61%
15:00 +14°C° 0 mm 4 m/S 756 mmHg 65%
16:00 +13°C° 0 mm 4 m/S 756 mmHg 68%
17:00 +12°C° 0 mm 3 m/S 756 mmHg 71%
18:00 +11°C° 0 mm 3 m/S 756 mmHg 74%
19:00 +11°C° 0 mm 3 m/S 756 mmHg 77%
20:00 +10°C° 0 mm 4 m/S 756 mmHg 80%
21:00 +10°C° 0 mm 3 m/S 757 mmHg 82%
22:00 +10°C° 0 mm 3 m/S 757 mmHg 84%
23:00 +10°C° 0 mm 3 m/S 757 mmHg 86%
Mehr zeigen